Zurück zum Katalog

FIRESAT2

AktivWissenschaftSSO
NORAD 69873·PAYLOAD·🇺🇸 United States

Gestartet Jul 7, 2026 von Vandenberg Space Force Base

Loading…

Nächste Überflüge (nächste 24 Stunden)

TLE

AktuellSource: Space-Track

Epoche: Sep 12, 2026, 03:52 UTC

1 69873U 26156E   26255.16170851  .00000673  00000-0  73314-4 0  9990
2 69873  97.7496 154.4862 0005998 294.5243  65.5350 14.91220200  9966

Verfolge FIRESAT2 in Echtzeit mit AllMySat

Download on the App Store